| time (UTC) | temp F | wind direction | speed MPH | gust MPH | rain 1hr in | rain 24hr in | rain mn in | humidity % | barometer mb |
| 20260904112032 | 83 | 210 | 10.0 | 21.0 | 0.00 | 0.00 | 0.00 | 49 | 1011.5 |
| 20260904111027 | 82 | 246 | 10.0 | 18.0 | 0.00 | 0.00 | 0.00 | 49 | 1011.7 |
| 20260904110025 | 82 | 248 | 10.0 | 21.0 | 0.00 | 0.00 | 0.00 | 50 | 1011.7 |
| 20260904105021 | 80 | 232 | 7.0 | 13.0 | 0.00 | 0.00 | 0.00 | 51 | 1011.8 |
| 20260904104018 | 80 | 211 | 8.0 | 15.0 | 0.00 | 0.00 | 0.00 | 52 | 1011.9 |
| 20260904103114 | 81 | 218 | 7.0 | 18.0 | 0.00 | 0.00 | 0.00 | 51 | 1012.0 |
| 20260904102110 | 81 | 208 | 8.0 | 16.0 | 0.00 | 0.00 | 0.00 | 52 | 1012.1 |
| 20260904101107 | 79 | 226 | 8.0 | 16.0 | 0.00 | 0.00 | 0.00 | 54 | 1012.3 |
| 20260904095057 | 78 | 207 | 5.0 | 11.0 | 0.00 | 0.00 | 0.00 | 57 | 1012.6 |
| 20260904094053 | 77 | 175 | 6.0 | 11.0 | 0.00 | 0.00 | 0.00 | 59 | 1012.9 |
| 20260904093049 | 78 | 248 | 7.0 | 13.0 | 0.00 | 0.00 | 0.00 | 59 | 1013.1 |
| 20260904092047 | 77 | 200 | 7.0 | 11.0 | 0.00 | 0.00 | 0.00 | 61 | 1013.2 |
| 20260904091043 | 76 | 200 | 6.0 | 13.0 | 0.00 | 0.00 | 0.00 | 62 | 1013.4 |
| 20260904090039 | 74 | 198 | 5.0 | 11.0 | 0.00 | 0.00 | 0.00 | 65 | 1013.6 |
| 20260904085035 | 73 | 222 | 5.0 | 13.0 | 0.00 | 0.00 | 0.00 | 65 | 1013.7 |
| 20260904084101 | 73 | 180 | 4.0 | 11.0 | 0.00 | 0.00 | 0.00 | 67 | 1013.9 |
| 20260904083057 | 72 | 168 | 6.0 | 9.0 | 0.00 | 0.00 | 0.00 | 68 | 1014.0 |
| 20260904082054 | 72 | 195 | 4.0 | 9.0 | 0.00 | 0.00 | 0.00 | 68 | 1014.2 |
| 20260904081051 | 71 | 199 | 4.0 | 8.0 | 0.00 | 0.00 | 0.00 | 69 | 1014.2 |
| 20260904080048 | 71 | 179 | 2.0 | 6.0 | 0.00 | 0.00 | 0.00 | 69 | 1014.3 |
| 20260904075045 | 71 | 212 | 3.0 | 6.0 | 0.00 | 0.00 | 0.00 | 69 | 1014.3 |
| 20260904074042 | 71 | 214 | 2.0 | 4.0 | 0.00 | 0.00 | 0.00 | 70 | 1014.5 |
| 20260904073038 | 70 | 211 | 2.0 | 4.0 | 0.00 | 0.00 | 0.00 | 70 | 1014.5 |
| 20260904072033 | 70 | 188 | 4.0 | 8.0 | 0.00 | 0.00 | 0.00 | 71 | 1014.4 |
| 20260904071029 | 69 | 184 | 3.0 | 4.0 | 0.00 | 0.00 | 0.00 | 72 | 1014.5 |
| 20260904070026 | 69 | 200 | 2.0 | 6.0 | 0.00 | 0.00 | 0.00 | 72 | 1014.6 |
| 20260904065023 | 69 | 187 | 1.0 | 4.0 | 0.00 | 0.00 | 0.00 | 72 | 1014.6 |
| 20260904064020 | 69 | 212 | 2.0 | 4.0 | 0.00 | 0.00 | 0.00 | 73 | 1014.6 |
| 20260904063015 | 68 | 196 | 2.0 | 4.0 | 0.00 | 0.00 | 0.00 | 74 | 1014.5 |
| 20260904062112 | 68 | 235 | 2.0 | 4.0 | 0.00 | 0.00 | 0.00 | 74 | 1014.7 |
| 20260904061108 | 67 | 216 | 1.0 | 4.0 | 0.00 | 0.00 | 0.00 | 74 | 1014.7 |
| 20260904060103 | 67 | 216 | 1.0 | 4.0 | 0.00 | 0.00 | 0.00 | 75 | 1014.7 |
| 20260904055059 | 66 | 0.0 | 2.0 | 0.00 | 0.00 | 0.00 | 76 | 1014.7 | |
| 20260904054055 | 66 | 0.0 | 0.0 | 0.00 | 0.00 | 0.00 | 77 | 1014.6 | |
| 20260904053052 | 65 | 230 | 1.0 | 2.0 | 0.00 | 0.00 | 0.00 | 77 | 1014.9 |
| 20260904052049 | 65 | 228 | 1.0 | 2.0 | 0.00 | 0.00 | 0.00 | 77 | 1014.8 |
| 20260904051045 | 64 | 214 | 2.0 | 4.0 | 0.00 | 0.00 | 0.00 | 77 | 1014.7 |
| 20260904050042 | 65 | 228 | 2.0 | 4.0 | 0.00 | 0.00 | 0.00 | 77 | 1014.8 |
| 20260904045038 | 64 | 210 | 2.0 | 4.0 | 0.00 | 0.00 | 0.00 | 77 | 1014.7 |
| 20260904044033 | 63 | 234 | 2.0 | 4.0 | 0.00 | 0.00 | 0.00 | 78 | 1014.6 |
| 20260904043030 | 63 | 214 | 2.0 | 4.0 | 0.00 | 0.00 | 0.00 | 79 | 1014.6 |
| 20260904042027 | 63 | 270 | 0.0 | 2.0 | 0.00 | 0.00 | 0.00 | 79 | 1014.7 |
| 20260904041024 | 63 | 0.0 | 2.0 | 0.00 | 0.00 | 0.00 | 79 | 1014.8 | |
| 20260904040020 | 63 | 201 | 0.0 | 2.0 | 0.00 | 0.00 | 0.00 | 79 | 1014.9 |
| 20260904035018 | 63 | 203 | 0.0 | 2.0 | 0.00 | 0.00 | 0.00 | 78 | 1015.0 |
| 20260904034115 | 64 | 256 | 1.0 | 2.0 | 0.00 | 0.00 | 0.00 | 77 | 1015.1 |
| 20260904033110 | 63 | 223 | 2.0 | 4.0 | 0.00 | 0.00 | 0.00 | 78 | 1015.1 |
| 20260904032106 | 63 | 232 | 1.0 | 4.0 | 0.00 | 0.00 | 0.00 | 79 | 1015.0 |
| 20260904031105 | 63 | 0.0 | 0.0 | 0.00 | 0.00 | 0.00 | 79 | 1015.2 | |
| 20260904030059 | 62 | 0.0 | 0.0 | 0.00 | 0.00 | 0.00 | 81 | 1015.4 | |
| 20260904025056 | 62 | 0.0 | 0.0 | 0.00 | 0.00 | 0.00 | 82 | 1015.4 | |
| 20260904024053 | 61 | 0.0 | 0.0 | 0.00 | 0.00 | 0.00 | 82 | 1015.4 | |
| 20260904023048 | 61 | 0.0 | 0.0 | 0.00 | 0.00 | 0.00 | 82 | 1015.5 | |
| 20260904022044 | 62 | 0.0 | 0.0 | 0.00 | 0.00 | 0.00 | 81 | 1015.5 | |
| 20260904021040 | 61 | 0.0 | 2.0 | 0.00 | 0.00 | 0.00 | 82 | 1015.6 | |
| 20260904020036 | 62 | 180 | 0.0 | 2.0 | 0.00 | 0.00 | 0.00 | 82 | 1015.6 |
| 20260904015032 | 61 | 0.0 | 0.0 | 0.00 | 0.00 | 0.00 | 83 | 1015.6 | |
| 20260904014027 | 61 | 180 | 0.0 | 2.0 | 0.00 | 0.00 | 0.00 | 83 | 1015.7 |
| 20260904013024 | 61 | 0.0 | 0.0 | 0.00 | 0.00 | 0.00 | 82 | 1015.7 | |
| 20260904012023 | 61 | 0.0 | 0.0 | 0.00 | 0.00 | 0.00 | 82 | 1015.6 | |
| 20260904011018 | 61 | 0.0 | 0.0 | 0.00 | 0.00 | 0.00 | 82 | 1015.6 | |
| 20260904010114 | 62 | 0.0 | 0.0 | 0.00 | 0.00 | 0.00 | 81 | 1015.6 | |
| 20260904005109 | 62 | 0.0 | 0.0 | 0.00 | 0.00 | 0.00 | 81 | 1015.6 | |
| 20260904004105 | 62 | 180 | 0.0 | 2.0 | 0.00 | 0.00 | 0.00 | 80 | 1015.8 |
| 20260904003103 | 63 | 0.0 | 0.0 | 0.00 | 0.00 | 0.00 | 79 | 1015.8 | |
| 20260904002059 | 63 | 213 | 1.0 | 4.0 | 0.00 | 0.00 | 0.00 | 79 | 1015.9 |
| 20260904001056 | 63 | 240 | 1.0 | 2.0 | 0.00 | 0.00 | 0.00 | 78 | 1016.0 |
| 20260904000053 | 63 | 196 | 2.0 | 4.0 | 0.00 | 0.00 | 0.00 | 78 | 1016.1 |
| 20260903235049 | 63 | 197 | 0.0 | 2.0 | 0.00 | 0.00 | 0.00 | 78 | 1016.4 |
| 20260903234048 | 63 | 0.0 | 2.0 | 0.00 | 0.00 | 0.00 | 79 | 1016.4 | |
| 20260903233042 | 62 | 225 | 0.0 | 2.0 | 0.00 | 0.00 | 0.00 | 80 | 1016.4 |
| 20260903232037 | 66 | 197 | 0.0 | 2.0 | 0.00 | 0.00 | 0.00 | 72 | 1016.3 |
| 20260903231033 | 67 | 236 | 1.0 | 2.0 | 0.00 | 0.00 | 0.00 | 70 | 1016.4 |
| 20260903230034 | 67 | 249 | 1.0 | 2.0 | 0.00 | 0.00 | 0.00 | 69 | 1016.6 |
| 20260903225029 | 66 | 219 | 1.0 | 4.0 | 0.00 | 0.00 | 0.00 | 71 | 1016.7 |
| 20260903224025 | 67 | 203 | 0.0 | 2.0 | 0.00 | 0.00 | 0.00 | 69 | 1016.6 |
| 20260903223019 | 67 | 254 | 1.0 | 2.0 | 0.00 | 0.00 | 0.00 | 68 | 1016.8 |
| 20260903222017 | 67 | 224 | 1.0 | 2.0 | 0.00 | 0.00 | 0.00 | 68 | 1016.6 |
| 20260903221112 | 66 | 0.0 | 0.0 | 0.00 | 0.00 | 0.00 | 71 | 1016.7 | |
| 20260903220107 | 66 | 0.0 | 0.0 | 0.00 | 0.00 | 0.00 | 72 | 1016.7 | |
| 20260903215103 | 66 | 0.0 | 0.0 | 0.00 | 0.00 | 0.00 | 71 | 1016.5 | |
| 20260903214059 | 67 | 0.0 | 0.0 | 0.00 | 0.00 | 0.00 | 69 | 1016.6 | |
| 20260903213056 | 66 | 0.0 | 0.0 | 0.00 | 0.00 | 0.00 | 70 | 1016.7 | |
| 20260903212053 | 67 | 0.0 | 0.0 | 0.00 | 0.00 | 0.00 | 69 | 1016.6 | |
| 20260903211051 | 68 | 0.0 | 0.0 | 0.00 | 0.00 | 0.00 | 68 | 1016.5 | |
| 20260903210045 | 69 | 0.0 | 2.0 | 0.00 | 0.00 | 0.00 | 66 | 1016.5 | |
| 20260903205041 | 69 | 232 | 2.0 | 4.0 | 0.00 | 0.00 | 0.00 | 65 | 1016.7 |
| 20260903204036 | 70 | 231 | 2.0 | 2.0 | 0.00 | 0.00 | 0.00 | 63 | 1016.7 |
| 20260903203034 | 71 | 221 | 1.0 | 2.0 | 0.00 | 0.00 | 0.00 | 61 | 1016.7 |
| 20260903202032 | 71 | 231 | 2.0 | 4.0 | 0.00 | 0.00 | 0.00 | 60 | 1016.7 |
| 20260903201029 | 71 | 250 | 1.0 | 4.0 | 0.00 | 0.00 | 0.00 | 60 | 1016.6 |
| 20260903200024 | 71 | 223 | 2.0 | 4.0 | 0.00 | 0.00 | 0.00 | 60 | 1016.4 |
| 20260903195021 | 71 | 258 | 3.0 | 6.0 | 0.00 | 0.00 | 0.00 | 60 | 1016.2 |
| 20260903194018 | 71 | 229 | 4.0 | 8.0 | 0.00 | 0.00 | 0.00 | 59 | 1016.2 |
| 20260903193115 | 70 | 215 | 2.0 | 4.0 | 0.00 | 0.00 | 0.00 | 63 | 1016.5 |
| 20260903192110 | 70 | 0.0 | 0.0 | 0.00 | 0.00 | 0.00 | 63 | 1016.4 | |
| 20260903191107 | 70 | 206 | 1.0 | 4.0 | 0.00 | 0.00 | 0.00 | 62 | 1016.4 |
| 20260903185101 | 71 | 208 | 1.0 | 2.0 | 0.00 | 0.00 | 0.00 | 60 | 1016.4 |
| 20260903184056 | 71 | 0.0 | 0.0 | 0.00 | 0.00 | 0.00 | 60 | 1016.3 | |
| 20260903183053 | 71 | 0.0 | 0.0 | 0.00 | 0.00 | 0.00 | 60 | 1016.2 | |
| 20260903182048 | 71 | 0.0 | 0.0 | 0.00 | 0.00 | 0.00 | 59 | 1016.0 | |
| 20260903181045 | 72 | 0.0 | 0.0 | 0.00 | 0.00 | 0.00 | 58 | 1016.1 | |
| 20260903180039 | 72 | 187 | 0.0 | 2.0 | 0.00 | 0.00 | 0.00 | 58 | 1016.0 |
| 20260903175035 | 72 | 206 | 1.0 | 2.0 | 0.00 | 0.00 | 0.00 | 57 | 1015.9 |
| 20260903174031 | 73 | 244 | 2.0 | 4.0 | 0.00 | 0.00 | 0.00 | 55 | 1016.1 |
| 20260903173027 | 73 | 234 | 3.0 | 6.0 | 0.00 | 0.00 | 0.00 | 54 | 1016.0 |
| 20260903172026 | 73 | 222 | 5.0 | 11.0 | 0.00 | 0.00 | 0.00 | 53 | 1016.0 |
| 20260903171021 | 74 | 244 | 5.0 | 9.0 | 0.00 | 0.00 | 0.00 | 53 | 1016.0 |
| 20260903170017 | 74 | 243 | 8.0 | 15.0 | 0.00 | 0.00 | 0.00 | 52 | 1016.0 |
| 20260903165114 | 74 | 221 | 5.0 | 9.0 | 0.00 | 0.00 | 0.00 | 50 | 1015.9 |
| 20260903164109 | 74 | 224 | 4.0 | 7.0 | 0.00 | 0.00 | 0.00 | 52 | 1015.9 |
| 20260903163106 | 75 | 220 | 3.0 | 6.0 | 0.00 | 0.00 | 0.00 | 52 | 1015.7 |
| 20260903162102 | 75 | 210 | 3.0 | 6.0 | 0.00 | 0.00 | 0.00 | 51 | 1015.9 |
| 20260903161101 | 75 | 239 | 5.0 | 8.0 | 0.00 | 0.00 | 0.00 | 51 | 1015.9 |
| 20260903160056 | 75 | 235 | 4.0 | 8.0 | 0.00 | 0.00 | 0.00 | 51 | 1016.0 |
| 20260903155054 | 74 | 242 | 3.0 | 6.0 | 0.00 | 0.00 | 0.00 | 52 | 1016.0 |
| 20260903154050 | 74 | 207 | 5.0 | 9.0 | 0.00 | 0.00 | 0.00 | 52 | 1015.9 |
| 20260903153047 | 74 | 209 | 4.0 | 9.0 | 0.00 | 0.00 | 0.00 | 52 | 1016.1 |
| 20260903152042 | 75 | 208 | 4.0 | 11.0 | 0.00 | 0.00 | 0.00 | 51 | 1016.1 |
| 20260903151039 | 74 | 219 | 2.0 | 4.0 | 0.00 | 0.00 | 0.00 | 55 | 1016.2 |
| 20260903150034 | 74 | 205 | 3.0 | 7.0 | 0.00 | 0.00 | 0.00 | 54 | 1016.2 |
| 20260903145031 | 74 | 209 | 3.0 | 6.0 | 0.00 | 0.00 | 0.00 | 54 | 1016.3 |
| 20260903144027 | 73 | 268 | 4.0 | 11.0 | 0.00 | 0.00 | 0.00 | 54 | 1016.3 |
| 20260903143024 | 72 | 245 | 5.0 | 8.0 | 0.00 | 0.00 | 0.00 | 55 | 1016.4 |
| 20260903142019 | 72 | 225 | 5.0 | 14.0 | 0.00 | 0.00 | 0.00 | 59 | 1016.3 |
| 20260903141115 | 71 | 186 | 0.0 | 2.0 | 0.00 | 0.00 | 0.00 | 63 | 1016.3 |
| 20260903140113 | 71 | 225 | 0.0 | 2.0 | 0.00 | 0.00 | 0.00 | 62 | 1016.7 |
| 20260903135108 | 71 | 213 | 1.0 | 2.0 | 0.00 | 0.00 | 0.00 | 64 | 1016.7 |
| 20260903134102 | 70 | 78 | 2.0 | 11.0 | 0.00 | 0.00 | 0.00 | 65 | 1017.0 |
| 20260903133100 | 70 | 221 | 2.0 | 4.0 | 0.00 | 0.00 | 0.00 | 63 | 1017.1 |
| 20260903132056 | 73 | 249 | 6.0 | 13.0 | 0.00 | 0.00 | 0.00 | 56 | 1017.2 |
| 20260903131056 | 74 | 241 | 6.0 | 11.0 | 0.00 | 0.00 | 0.00 | 49 | 1017.0 |
| 20260903130050 | 74 | 256 | 6.0 | 11.0 | 0.00 | 0.00 | 0.00 | 49 | 1016.9 |
| 20260903125044 | 74 | 237 | 6.0 | 11.0 | 0.00 | 0.00 | 0.00 | 49 | 1017.1 |
| 20260903124040 | 74 | 241 | 5.0 | 11.0 | 0.00 | 0.00 | 0.00 | 49 | 1017.0 |
| 20260903123038 | 74 | 249 | 5.0 | 13.0 | 0.00 | 0.00 | 0.00 | 50 | 1016.9 |
| 20260903122034 | 74 | 208 | 7.0 | 16.0 | 0.00 | 0.00 | 0.00 | 50 | 1016.8 |
| 20260903121032 | 74 | 199 | 6.0 | 13.0 | 0.00 | 0.00 | 0.00 | 49 | 1017.0 |
| 20260903120029 | 74 | 243 | 6.0 | 11.0 | 0.00 | 0.00 | 0.00 | 49 | 1017.0 |
| 20260903115026 | 75 | 214 | 6.0 | 13.0 | 0.00 | 0.00 | 0.00 | 48 | 1017.1 |
| 20260903114021 | 74 | 287 | 5.0 | 9.0 | 0.00 | 0.00 | 0.00 | 48 | 1017.1 |
| 20260903113019 | 75 | 197 | 5.0 | 13.0 | 0.00 | 0.00 | 0.00 | 49 | 1017.2 |